TimeEST,TemperatureF,Dew PointF,Humidity,Sea Level PressureIn,VisibilityMPH,Wind Direction,Wind SpeedMPH,Gust SpeedMPH,PrecipitationIn,Events,Conditions,WindDirDegrees,DateUTC
12:53 AM,53.1,52.0,96,30.01,10.0,SW,10.4,-,N/A,,Overcast,220,2013-01-14 05:53:00
1:44 AM,53.6,51.8,94,30.00,10.0,SW,12.7,-,N/A,,Overcast,220,2013-01-14 06:44:00
1:53 AM,54.0,52.0,93,30.01,8.0,SW,12.7,-,N/A,,Overcast,220,2013-01-14 06:53:00
2:06 AM,53.6,51.8,94,30.01,1.8,SSW,11.5,-,N/A,,Overcast,210,2013-01-14 07:06:00
2:53 AM,53.1,52.0,96,30.01,1.0,SW,10.4,-,N/A,,Overcast,220,2013-01-14 07:53:00
3:20 AM,53.6,51.8,94,30.00,2.0,SSW,10.4,-,N/A,,Overcast,200,2013-01-14 08:20:00
3:38 AM,53.6,51.8,94,29.99,4.0,SW,13.8,24.2,N/A,,Overcast,220,2013-01-14 08:38:00
3:53 AM,54.0,52.0,93,29.98,8.0,SW,15.0,23.0,N/A,,Overcast,230,2013-01-14 08:53:00
4:53 AM,52.0,50.0,93,29.97,10.0,SW,9.2,16.1,N/A,,Overcast,230,2013-01-14 09:53:00
5:36 AM,51.8,50.0,94,29.99,10.0,WSW,6.9,-,N/A,,Overcast,240,2013-01-14 10:36:00
5:53 AM,52.0,50.0,93,30.00,10.0,SW,5.8,-,N/A,,Overcast,230,2013-01-14 10:53:00
6:53 AM,51.8,51.8,100,29.98,10.0,SSW,9.2,-,N/A,,Overcast,210,2013-01-14 11:53:00
7:15 AM,51.8,51.8,100,29.98,2.0,SSW,9.2,-,N/A,,Overcast,210,2013-01-14 12:15:00
7:22 AM,51.8,51.8,100,29.98,1.5,SSW,10.4,-,N/A,,Overcast,210,2013-01-14 12:22:00
7:53 AM,51.1,50.0,96,29.96,0.2,South,12.7,-,N/A,Fog,Fog,190,2013-01-14 12:53:00
8:25 AM,51.8,51.8,100,29.95,0.5,South,12.7,-,N/A,Fog,Fog,190,2013-01-14 13:25:00
8:49 AM,53.6,51.8,94,29.96,2.0,SW,10.4,-,N/A,,Overcast,220,2013-01-14 13:49:00
8:53 AM,53.1,51.1,93,29.95,2.0,SSW,11.5,-,N/A,,Overcast,200,2013-01-14 13:53:00
9:53 AM,53.1,52.0,96,30.00,3.0,SW,9.2,-,N/A,,Overcast,230,2013-01-14 14:53:00
10:53 AM,54.0,52.0,93,30.01,5.0,West,4.6,-,N/A,,Overcast,280,2013-01-14 15:53:00
11:53 AM,55.9,53.1,90,30.00,8.0,WNW,8.1,-,N/A,,Overcast,300,2013-01-14 16:53:00
12:08 PM,55.4,53.6,94,30.00,10.0,WNW,6.9,-,N/A,,Overcast,290,2013-01-14 17:08:00
12:49 PM,57.2,53.6,88,29.99,10.0,WNW,5.8,-,N/A,,Scattered Clouds,290,2013-01-14 17:49:00
12:53 PM,57.9,52.0,81,29.99,10.0,WNW,3.5,-,N/A,,Partly Cloudy,290,2013-01-14 17:53:00
1:53 PM,61.0,52.0,72,30.01,10.0,WNW,9.2,-,N/A,,Clear,290,2013-01-14 18:53:00
2:53 PM,59.0,48.9,69,30.04,10.0,WNW,6.9,-,N/A,,Clear,300,2013-01-14 19:53:00
3:53 PM,59.0,39.9,49,30.07,10.0,WNW,10.4,19.6,N/A,,Mostly Cloudy,300,2013-01-14 20:53:00
4:53 PM,54.0,34.0,47,30.09,10.0,WNW,8.1,-,N/A,,Clear,300,2013-01-14 21:53:00
5:53 PM,52.0,34.0,50,30.10,10.0,NW,3.5,-,N/A,,Scattered Clouds,310,2013-01-14 22:53:00
6:53 PM,51.1,30.0,44,30.11,10.0,NW,3.5,-,N/A,,Scattered Clouds,320,2013-01-14 23:53:00
7:53 PM,50.0,30.0,46,30.14,10.0,Variable,4.6,-,N/A,,Overcast,0,2013-01-15 00:53:00
8:53 PM,48.0,30.9,52,30.18,10.0,NW,6.9,-,N/A,,Overcast,310,2013-01-15 01:53:00
9:53 PM,46.9,30.0,52,30.17,10.0,Variable,5.8,-,N/A,,Overcast,0,2013-01-15 02:53:00
10:53 PM,46.0,30.0,54,30.23,10.0,NNW,9.2,19.6,N/A,,Overcast,330,2013-01-15 03:53:00
11:53 PM,41.0,36.0,82,30.24,9.0,Calm,Calm,-,0.03,Rain,Light Rain,0,2013-01-15 04:53:00